Linden, NJ

5:20 AM EDT on May 30, 2017 (GMT -0400)
Linden

Weather History for KLDJ - March, 2013

Change the Weather History Date:

Thursday, March 28, 2013

  Actual Average (KEWR) Record (KEWR)
Temperature  
Mean Temperature 44 °F -  
Max Temperature 51 °F 55 °F 87 °F (1945)
Min Temperature 37 °F 37 °F 19 °F (1982)
Degree Days  
Heating Degree Days 21    
Moisture  
Dew Point 30 °F    
Average Humidity 57    
Maximum Humidity 75    
Minimum Humidity 40    
Precipitation  
Precipitation 0.00 in - - ()
Sea Level Pressure  
Sea Level Pressure 30.02 in    
Wind  
Wind Speed 9 mph (NW)    
Max Wind Speed 14 mph    
Max Gust Speed 22 mph    
Visibility 10 miles    
Events Rain    
Averages and records for this station are not official NWS values.
T = Trace of Precipitation, MM = Missing Value Source: NWS Daily Summary

Daily Weather History Graph

Daily Weather History Graph

Search for Another Location

Airport or City:

Trip Planner

Search our weather history database for the weather conditions in past years. The results will help you decide how hot, cold, wet, or windy it might be!

Date:

Astronomy

Mar. 28, 2013 Rise Set
Actual Time 6:46 AM EDT 7:17 PM EDT
Civil Twilight 6:19 AM EDT 7:45 PM EDT
Nautical Twilight 5:47 AM EDT 8:17 PM EDT
Astronomical Twilight 5:13 AM EDT 8:50 PM EDT
Moon 9:07 PM EDT (3/28) 7:12 AM EDT (3/28)
Length of Visible Light 13h 25m
Length of Day
12h 30m
Full, 98% of the Moon is Illuminated
Mar 28
Full
Apr 3
Last Quarter
Apr 10
New
Apr 18
First Quarter
Apr 25
Full

Hourly Weather History & Observations

Time (EDT) Temp. Windchill Dew Point Humidity Pressure Visibility Wind Dir Wind Speed Gust Speed Precip Events Conditions
12:15 AM 41.9 °F 36.3 °F 31.1 °F 66% 29.99 in 10.0 mi NW 9.2 mph - N/A   Scattered Clouds
12:35 AM 41.5 °F 35.9 °F 31.1 °F 66% 29.99 in 10.0 mi WNW 9.2 mph - N/A   Clear
12:55 AM 41.4 °F 36.8 °F 31.1 °F 67% 29.99 in 10.0 mi NW 6.9 mph - N/A   Clear
1:15 AM 41.0 °F 35.2 °F 30.9 °F 67% 29.99 in 10.0 mi WNW 9.2 mph - N/A   Clear
1:35 AM 40.6 °F 34.8 °F 30.9 °F 68% 29.99 in 10.0 mi WNW 9.2 mph - N/A   Clear
2:15 AM 40.3 °F 34.9 °F 30.6 °F 68% 29.99 in 10.0 mi WNW 8.1 mph - N/A   Clear
2:35 AM 40.1 °F 33.2 °F 30.4 °F 68% 29.99 in 10.0 mi WNW 11.5 mph - N/A   Clear
3:15 AM 39.6 °F 33.0 °F 30.0 °F 69% 29.98 in 10.0 mi WNW 10.4 mph - N/A   Clear
3:35 AM 39.4 °F 32.7 °F 30.2 °F 70% 29.98 in 10.0 mi WNW 10.4 mph - N/A   Clear
3:55 AM 39.2 °F 32.5 °F 30.2 °F 70% 29.98 in 10.0 mi WNW 10.4 mph - N/A   Clear
4:15 AM 38.7 °F 34.3 °F 30.2 °F 72% 29.98 in 10.0 mi WNW 5.8 mph - N/A   Clear
4:35 AM 38.3 °F 33.2 °F 30.0 °F 72% 29.98 in 10.0 mi West 6.9 mph - N/A   Clear
4:55 AM 37.9 °F 33.5 °F 30.0 °F 73% 29.98 in 10.0 mi WNW 5.8 mph - N/A   Clear
5:15 AM 38.3 °F - 30.0 °F 72% 29.98 in 10.0 mi Calm Calm - N/A   Clear
5:35 AM 38.3 °F 33.9 °F 29.8 °F 72% 29.98 in 10.0 mi West 5.8 mph - N/A   Clear
5:55 AM 37.9 °F 33.5 °F 30.0 °F 73% 29.98 in 10.0 mi West 5.8 mph - N/A   Scattered Clouds
6:15 AM 37.8 °F 32.5 °F 30.2 °F 74% 29.98 in 10.0 mi West 6.9 mph - N/A   Clear
6:35 AM 37.6 °F 32.3 °F 30.2 °F 75% 29.99 in 10.0 mi West 6.9 mph - N/A   Clear
6:55 AM 37.4 °F 32.1 °F 30.0 °F 75% 29.99 in 10.0 mi West 6.9 mph - N/A   Clear
7:15 AM 37.4 °F 30.8 °F 30.2 °F 75% 29.99 in 10.0 mi West 9.2 mph - N/A   Clear
7:35 AM 38.1 °F 32.3 °F 30.4 °F 74% 29.99 in 10.0 mi West 8.1 mph - N/A   Clear
7:55 AM 38.8 °F 33.2 °F 30.7 °F 73% 30.00 in 10.0 mi West 8.1 mph - N/A   Clear
8:15 AM 39.9 °F 34.5 °F 30.7 °F 70% 30.01 in 10.0 mi WNW 8.1 mph - N/A   Clear
8:35 AM 41.2 °F 36.6 °F 31.1 °F 67% 30.01 in 10.0 mi WNW 6.9 mph - N/A   Clear
8:55 AM 42.6 °F 36.8 °F 30.6 °F 62% 30.01 in 10.0 mi WNW 10.4 mph - N/A   Clear
9:15 AM 43.7 °F 37.3 °F 30.2 °F 59% 30.01 in 10.0 mi NW 12.7 mph 20.7 mph N/A   Clear
9:35 AM 44.8 °F 38.3 °F 29.8 °F 56% 30.01 in 10.0 mi NW 13.8 mph - N/A   Clear
10:15 AM 46.4 °F 40.7 °F 29.7 °F 52% 30.01 in 10.0 mi NW 12.7 mph 17.3 mph N/A   Clear
10:35 AM 47.7 °F - 29.7 °F 50% 30.01 in 10.0 mi NNW 10.4 mph 17.3 mph N/A   Clear
10:55 AM 48.2 °F - 29.5 °F 48% 30.01 in 10.0 mi North 9.2 mph 17.3 mph N/A   Clear
11:15 AM 49.6 °F - 29.7 °F 46% 30.01 in 10.0 mi NW 9.2 mph - N/A   Clear
11:35 AM 49.1 °F - 27.5 °F 43% 30.01 in 10.0 mi NNW 10.4 mph 17.3 mph N/A   Scattered Clouds
11:55 AM 49.6 °F - 28.0 °F 43% 30.01 in 10.0 mi NW 13.8 mph 19.6 mph N/A   Mostly Cloudy
12:15 PM 50.0 °F - 27.9 °F 42% 30.01 in 10.0 mi NNE 8.1 mph - N/A   Overcast
12:35 PM 50.2 °F - 28.0 °F 42% 30.01 in 10.0 mi North 9.2 mph - N/A   Overcast
12:55 PM 50.5 °F - 26.8 °F 40% 30.01 in 10.0 mi NNW 6.9 mph - N/A   Overcast
1:15 PM 49.3 °F - 28.0 °F 44% 30.01 in 10.0 mi NW 10.4 mph 16.1 mph N/A   Overcast
1:35 PM 50.0 °F - 27.5 °F 42% 30.01 in 10.0 mi North 8.1 mph - N/A   Overcast
1:55 PM 50.5 °F - 28.9 °F 43% 30.01 in 10.0 mi WNW 12.7 mph - N/A   Overcast
2:15 PM 49.3 °F - 29.1 °F 46% 30.01 in 10.0 mi NNW 10.4 mph - N/A   Light Drizzle
3:15 PM 49.1 °F - 31.5 °F 51% 30.01 in 10.0 mi North 13.8 mph 21.9 mph N/A Rain Light Rain
3:35 PM 48.4 °F - 32.4 °F 54% 30.01 in 10.0 mi NW 6.9 mph - N/A   Overcast
3:55 PM 49.6 °F - 30.6 °F 48% 30.01 in 10.0 mi NW 12.7 mph - N/A   Overcast
4:15 PM 50.9 °F - 29.7 °F 44% 30.01 in 10.0 mi NW 12.7 mph - N/A   Overcast
4:35 PM 51.1 °F - 28.4 °F 42% 30.01 in 10.0 mi NNW 10.4 mph 16.1 mph N/A   Overcast
4:55 PM 49.3 °F - 32.4 °F 52% 30.02 in 10.0 mi NNW 10.4 mph 18.4 mph N/A Rain Rain
5:15 PM 48.6 °F - 33.3 °F 56% 30.02 in 10.0 mi NW 4.6 mph - N/A   Overcast
5:35 PM 49.1 °F - 32.9 °F 54% 30.03 in 10.0 mi North 5.8 mph - N/A   Light Drizzle
5:55 PM 49.8 °F - 30.7 °F 48% 30.03 in 10.0 mi NW 10.4 mph - N/A   Overcast
6:15 PM 50.0 °F - 29.7 °F 46% 30.04 in 10.0 mi NNW 10.4 mph 17.3 mph N/A   Overcast
6:35 PM 50.0 °F - 29.5 °F 45% 30.04 in 10.0 mi NW 10.4 mph - N/A   Overcast
7:15 PM 49.1 °F - 31.1 °F 50% 30.06 in 10.0 mi NW 8.1 mph - N/A   Light Drizzle
7:35 PM 49.3 °F - 29.1 °F 46% 30.06 in 10.0 mi NW 12.7 mph - N/A   Overcast
8:15 PM 48.9 °F - 29.3 °F 47% 30.08 in 10.0 mi NW 9.2 mph - N/A   Overcast
8:35 PM 48.7 °F - 29.3 °F 47% 30.09 in 10.0 mi NW 9.2 mph - N/A   Overcast
8:55 PM 48.6 °F - 29.5 °F 48% 30.09 in 10.0 mi NW 8.1 mph 19.6 mph N/A   Overcast
9:15 PM 48.2 °F - 29.8 °F 49% 30.10 in 10.0 mi NNW 5.8 mph 16.1 mph N/A   Overcast
9:35 PM 47.8 °F - 30.0 °F 50% 30.10 in 10.0 mi NW 9.2 mph - N/A   Overcast
9:55 PM 47.7 °F - 30.2 °F 51% 30.11 in 10.0 mi NW 11.5 mph - N/A   Overcast
10:15 PM 47.7 °F - 30.2 °F 51% 30.11 in 10.0 mi NW 11.5 mph 18.4 mph N/A   Overcast
10:35 PM 47.5 °F - 30.2 °F 51% 30.11 in 10.0 mi WNW 8.1 mph - N/A   Overcast
10:55 PM 47.1 °F - 30.0 °F 51% 30.11 in 10.0 mi NW 9.2 mph - N/A   Mostly Cloudy
11:15 PM 45.9 °F 41.7 °F 30.2 °F 54% 30.12 in 10.0 mi NW 8.1 mph - N/A   Clear
11:35 PM 45.7 °F 42.7 °F 30.2 °F 55% 30.12 in 10.0 mi NW 5.8 mph - N/A   Scattered Clouds
11:55 PM 44.8 °F 41.6 °F 30.2 °F 57% 30.12 in 10.0 mi WNW 5.8 mph - N/A   Scattered Clouds